FENGYUN 1C DEB, 30570

Orbit data source: Space-Track

FENGYUN 1C DEB, 30570 is space debris in SSO originally from a launch on Mon, 10 May 1999 UTC launched from the Taiyaun Space Center, China (TSC). Fengyun 1C debris stems from the Chinese weather satellite Fengyun-1C, which was intentionally destroyed by a Chinese anti-satellite missile in 2007. This event dramatically increased the amount of space debris, with thousands of trackable fragments posing hazards to satellites and human spaceflight. The Fengyun 1C debris cloud has become a focal point in discussions about space sustainability and the need for international regulations to prevent the creation of new debris.

Loading next visibility...
Identifier
30570, 1999-025ALL
Orbit
SSO
Country
Flag of CNCN / PRC
Related business
Manufacturer
Unknown
Mission
Spacecraft
Bus & Motor
Unknown
Mass
Unknown
Launch date (UTC)
1999-05-10 (27 years ago)
Launch vehicle
Unknown
Launch site
Taiyaun Space Center, China (TSC)
Object type
Payload
Rocket body
Debris
Shape & HBR
Unknown shape, 0.1 m
Radar Cross Section
Medium (>0.1 m² and <1 m²)

Expand to show TLE details & history
Last TLE update: 16 hours ago

TLE from 16 hours ago
0 FENGYUN 1C DEB
1 30570U 99025ALL 26255.06877229  .00000447  00000-0  25319-3 0  9999
2 30570  98.6887 285.5775 0036147 151.0632 235.6401 14.14674935  8565
Epoch: 2026-09-12T01:39Z
TLE epoch observation values (Epoch: 2026-09-12T01:39:01.925Z)
Latitude
26.07098°
Longitude
-94.52895°
Altitude
861.377 km
Speed
7.417 km/s
True Right ascension
18h 45m 14s
True Declination
25° 56' 15"
Sunlit
Object was in daylight at epoch
Visualization orbit readout
Latitude
Unknown
Longitude
Unknown
Altitude
Unknown
Speed
Unknown
Apparent Right ascension
Unknown
Apparent Declination
Unknown
Sunlit
N/A
Visualization observer readout
Local Sidereal Time
10:18:17
Azimuth
Unknown
Elevation
Unknown
Doppler factor
Unknown
Orbital elements
Apogee altitude
866.676 km
Perigee altitude
814.489 km
Semi-major axis
7,218.72 km
Eccentricity
0.00361
Inclination
98.6887°
RAAN
285.5775°
Arg. of periapsis
151.0632°
True anomaly
235.29903°
Mean anomaly
235.6401°
Eccentric anomaly
235.46948°
Mean motion
3.53877 °/min
Orbital period
101.73 mins
BSTAR
0.00025319
Loading maneuver chart data...
Computing Atmospheric mass density...

Documentation

Showing up to 5 results
|